weather.gov     
National Weather Service

Terminal Aerodrome Forecast
NWS Homepage
This page is being discontinued on March 12, 2014.
The same data is available at this site. Please update your bookmarks.
Thank you, and we apologize for the inconvenience.
Please send an email to SR-SRH.Webmaster@noaa.gov with any concerns.


Current Version
Previous Version:    01  02  03  04  05  06  07  08  09  10  11  12  13  14  15  16  17  18  19  20  21  22  23  24  25  26  27  28  29  
[Printable]
341
FTUS44 KOUN 222326
TAFOUN
TAF
KOUN 222326Z 2300/2324 15014G20KT P6SM SCT008 OVC060
      TEMPO 2300/2303 4SM -RA BR OVC008
     FM230400 17012KT 2SM BR OVC004
     FM231400 18012KT 5SM BR OVC008
     FM231800 23014KT P6SM BKN015
     FM232100 33020G30KT P6SM OVC030=




341
FTUS44 KOUN 222326
TAFOUN
TAF
KOUN 222326Z 2300/2324 15014G20KT P6SM SCT008 OVC060
      TEMPO 2300/2303 4SM -RA BR OVC008
     FM230400 17012KT 2SM BR OVC004
     FM231400 18012KT 5SM BR OVC008
     FM231800 23014KT P6SM BKN015
     FM232100 33020G30KT P6SM OVC030=


U.S. Dept. of Commerce
NOAA National Weather Service
1325 East West Highway
Silver Spring, MD 20910
E-mail: w-nws.webmaster@noaa.gov
Page last modified: May 16, 2007
NATIONAL WEATHER SERVICE: for Safety, for Work, for Fun - FOR LIFE